Tracking 31027 objects as of 19-Jul-2025
HD Live streaming from Space Station
objects crossing your sky now

STARLINK-1292

Track STARLINK-1292 now!
10-day predictions
STARLINK-1292 is classified as:


NORAD ID: 45394
Int'l Code: 2020-019AL
Perigee: 436.8 km
Apogee: 437.8 km
Inclination: 53.1 °
Period: 93.2 minutes
Semi major axis: 6808 km
RCS: Unknown
Launch date: March 18, 2020
Source: United States (US)
Launch site: AIR FORCE EASTERN TEST RANGE (AFETR)
Your satellite tracking list
STARLINK-3957
Track 1 satellite(s)




NASA's NSSDC Master Catalog

Two Line Element Set (TLE):
1 45394U 20019AL  25199.91668981  .01142532  00000-0  21464-1 0  9997
2 45394  53.0548 113.0834 0000796 110.1227 140.5437 15.45412129  5797
Source of the keplerian elements: AFSPC